STARLINK-3100 (49144 NORAD) Tracking and Keplerian Element Data

This shows tracking and keplerian element data for the satellite.

Feedback or suggestion? Click here.




ElementValue
Catalog49144
NameSTARLINK-3100
Epoch Orbit367
Epoch Day300.58334491
Epoch Year2021
RAAN4.7138
Inclination69.9998
Eccentricity0.0003877
Argument of Perigee294.8572
Mean Anonmoly71.6745
Mean Motion15.69770564
Decay Rate-0.00048101
L11 49144U 21082Q 21300.58334491 -.00048101 00000-0 -40306-3 0 9990
L22 49144 69.9998 4.7138 0003877 294.8572 71.6745 15.69770564 3675

Live tracking and technical data element details for STARLINK-3100 (NORAD 49144). STARLINK-3100 can be tracked NOW for your location showing map with azimuth and elevation plus other details from your city location.

Track the satellite on the map from your city or location and see movement details for azimuth, elevation, latitude, longitude, range, height, and movement on the map or in text.







IsCatalogInMostPopularTable: catalog: 49144, numindb: 6
Update: records affected: 1



GetName: 49144 STARLINK-3100

Hit Count: updated at: Thu, 28 Oct 2021 11:45:21 GMT